Regional Weather Roundup
Issued by NWS

Home | Current Version | Previous Version | Text Only | Print | Product List | Glossary Off
Versions: 1 2 3 4 5 6 7 8 9 10 11 12 13 14 15 16 17 18 19 20 21 22 23 24 25 26 27 28 29 30 31 32 33 34 35 36 37 38 39 40 41 42 43 44 45 46 47 48 49 50

037
ASUS43 KDMX 230201
RWRIA

WEATHER ROUNDUP FOR IOWA
NATIONAL WEATHER SERVICE DES MOINES IA
800 PM CST WED NOV 22 2017

NOTE: "FAIR" INDICATES FEW OR NO CLOUDS BELOW 12,000 FEET WITH NO
SIGNIFICANT WEATHER AND/OR OBSTRUCTIONS TO VISIBILITY.

* - THESE STATIONS ARE NOT NWS STATIONS...THUS NOT UNDER NWS
QUALITY CONTROL.  THEY ALSO DO NOT REPORT WEATHER SUCH
AS PRECIPITATION OR FOG.

IAZ001>003-012>014-020>022-031>034-043>046-230300-
   NORTHWEST IOWA

CITY           SKY/WX    TMP DP  RH WIND       PRES   REMARKS
CARROLL *      CLEAR     34  16  47 SW16G25   30.03F WCI  23
CHEROKEE *     CLEAR     32  18  55 S7        30.00S WCI  26
DENISON *      CLEAR     34  18  51 S12G18    30.05F WCI  25
LE MARS *      CLEAR     34  19  55 S10       29.99S WCI  26
ORANGE CITY *  CLEAR     34  21  60 S9        29.98S WCI  26
SHELDON *      CLEAR     34  18  51 S10G16    29.95F WCI  26
SIOUX CITY     CLEAR     35  19  52 S5        30.01F WCI  31
SPENCER        CLEAR     31  16  54 S10       29.99F WCI  22
STORM LAKE *   CLEAR     32  16  51 SW17G24   29.99F WCI  21
$$

IAZ055>058-069>071-079>083-090>094-230300-
   SOUTHWEST IOWA

CITY           SKY/WX    TMP DP  RH WIND       PRES   REMARKS
ATLANTIC *     CLEAR     32  19  59 S12       30.09F WCI  23
AUDUBON *      CLEAR     34  18  51 S13       30.06F WCI  25
CLARINDA *     PTCLDY    32  18  55 S7        30.16F WCI  26
COUNCIL BLFS * PTCLDY    39  18  41 S12       30.08F WCI  32
CRESTON *      CLEAR     30  18  59 SW10      30.13F WCI  21
HARLAN  *      CLEAR     32  18  55 S14       30.10F WCI  22
LAMONI         PTCLDY    32  16  51 S12       30.15F WCI  23
RED OAK *      PTCLDY    32  19  59 S6        30.13F WCI  26
SHENANDOAH *   CLOUDY    36  19  51 S10       30.13F WCI  28
$$

IAZ047>049-059>061-072>074-084-230300-
   CENTRAL IOWA

CITY           SKY/WX    TMP DP  RH WIND       PRES   REMARKS
AMES           CLEAR     32  18  56 S9        30.09F WCI  24
ANKENY *       CLEAR     34  14  44 S8        30.12S WCI  27
BOONE *        PTCLDY    34  16  47 SW14G22   30.06F WCI  24
CHARITON *     PTCLDY    34  16  47 S12       30.13F WCI  25
DES MOINES     PTCLDY    35  15  44 S13       30.12F WCI  26
GRINNELL*      CLOUDY    33  15  47 S10       30.13F WCI  25
KNOXVILLE *    PTCLDY    34  14  44 S12       30.11F WCI  25
MARSHALLTOWN   PTCLDY    33  16  49 S14       30.08F WCI  23
NEWTON *       PTCLDY    32  14  47 S9        30.13R WCI  24
PELLA *        CLEAR     33  14  46 S9        30.13F WCI  25
PERRY *          N/A     31  15  53 S8        30.09F WCI  23
$$

IAZ004>006-015-016-023>025-035-036-230300-
   NORTH CENTRAL IOWA

CITY           SKY/WX    TMP DP  RH WIND       PRES   REMARKS
ALGONA *       CLOUDY    34  18  51 S18       30.01F WCI  23
CLARION *      CLOUDY    32  18  55 S16       30.05F WCI  21
ESTHERVILLE    CLOUDY    32  17  54 SW21G28   29.96F WCI  20
FORT DODGE *   CLOUDY    33  16  49 S13       30.05S WCI  24
MASON CITY     CLOUDY    33  17  51 S13       30.05F WCI  24
FOREST CITY *  CLOUDY    34  19  55 SW13      30.03S WCI  25
WEBSTER CITY * CLOUDY    34  16  47 S15       30.05R WCI  24
IOWA FALLS *     N/A     32  18  56 S7        30.08S WCI  26
$$

IAZ007>011-017>019-026>030-037>042-050>054-066-230300-
   NORTHEAST IOWA

CITY           SKY/WX    TMP DP  RH WIND       PRES   REMARKS
CEDAR RAPIDS   CLOUDY    33  16  49 S8        30.14F WCI  26
CHARLES CITY * CLOUDY    32  16  51 S12       30.06F WCI  23
CLINTON *      CLOUDY    31  21  66 S6        30.21F WCI  25
DECORAH *      CLOUDY    30  16  55 S12       30.07F WCI  21
DUBUQUE        CLOUDY    30  17  58 S14       30.14F WCI  19
MONTICELLO *   CLOUDY    32  18  55 S8        30.15F WCI  25
OELWEIN *      PTCLDY    30  18  59 S14       30.09F WCI  20
WATERLOO       CLOUDY    32  14  47 S13       30.09F WCI  22
$$

IAZ064-065-067-068-078-230300-
   EAST CENTRAL IOWA

CITY           SKY/WX    TMP DP  RH WIND       PRES   REMARKS
DAVENPORT      MOCLDY    32  18  56 S9        30.22S WCI  24
IOWA CITY      CLOUDY    35  18  49 S8        30.18F WCI  29
MT. PLEASANT * CLOUDY    33  18  53 S9        30.19F WCI  25
MUSCATINE *    CLOUDY    34  18  51 S9        30.19F WCI  26
QUAD CITIES    CLOUDY    34  16  47 S6        30.21R WCI  29
$$

IAZ062-063-075>077-085>089-095>099-230300-
   SOUTHEAST IOWA

CITY           SKY/WX    TMP DP  RH WIND       PRES   REMARKS
BURLINGTON     MOCLDY    33  20  58 S8        30.20F WCI  26
FAIRFIELD *    CLOUDY    34  14  44 S10       30.16F WCI  26
FORT MADISON * CLOUDY    34  21  60 S5        30.21F WCI  30
KEOKUK *       CLOUDY    34  18  51 S5        30.21F WCI  30
OSKALOOSA *      N/A     31  17  57 S9        30.15F WCI  23
OTTUMWA        PTCLDY    33  15  47 S10       30.15F WCI  25
WASHINGTON *   CLOUDY    34  18  51 S9        30.18F WCI  26
$$

ABBREVIATIONS USED IN REMARKS
   TC - TEMPERATURES IN CELSIUS
  WCI - WIND CHILL INDEX
   HX - HEAT INDEX
  VSB - VISIBILITY
$$





USA.gov is the U.S. government's official web portal to all federal, state and local government web resources and services.